Temp
56 56 56 56 57 57 57 57 57 58 58 58 59 59 59 59 59 54 49 55 54 50 54 57 59 53 54 53 49 54 58 58 60 58 58 57 59 57 55 52 51 55 53 52 50 51 51 69 71 66 69 66 71 70
55 56 56 56 56 56 57 57 57 57 57 58 58 59 59 59 58 57 51 53 60 50 52 57 60 62 60 61 53 53 56 55 60 56 56 56 60 56 51 52 54 55 57 56 56 57 63 66 65 69 69 68 70 70
55 55 56 56 56 56 57 57 57 57 57 58 58 58 58 58 58 57 49 49 53 51 52 55 56 66 68 66 67 52 57 61 61 63 57 56 57 57 55 53 56 58 59 58 58 63 64 69 71 71 72 73 73 72
55 55 56 56 56 56 56 56 57 57 57 57 58 58 58 58 58 58 52 50 50 49 48 50 66 62 68 69 66 65 65 64 60 59 57 55 58 59 54 57 57 61 61 58 58 62 69 71 71 70 74 75 76 77
55 55 55 56 56 56 56 56 57 57 57 57 57 58 58 58 57 56 54 53 52 50 47 50 56 66 69 64 65 65 60 56 55 56 55 59 58 60 55 55 57 60 62 61 60 64 66 65 68 72 73 74 75 75
55 55 55 55 55 55 56 56 57 57 57 57 57 57 57 57 56 52 47 50 53 55 48 47 57 59 69 66 63 60 60 57 55 54 55 57 60 59 52 52 62 66 66 68 65 68 68 70 72 73 73 73 73 72
55 55 55 55 55 55 56 56 56 56 56 57 57 57 57 56 52 48 48 52 54 56 50 47 50 61 68 68 62 59 59 57 57 54 54 56 57 56 52 53 63 64 69 69 69 69 67 67 66 70 72 72 71 71
55 55 56 55 55 56 56 56 56 56 56 56 56 56 56 54 53 47 54 53 54 52 53 49 49 54 65 62 63 59 57 56 57 56 54 55 53 54 53 57 61 64 68 68 68 69 67 67 69 69 70 71 69 67
55 56 56 55 56 56 56 56 56 56 56 56 56 55 53 50 47 48 59 57 56 53 50 50 48 49 61 58 60 62 56 55 59 57 56 55 50 53 60 59 63 64 66 63 66 68 69 66 65 66 68 67 65 64
56 56 55 55 55 55 55 56 56 56 56 56 53 48 45 49 57 59 55 51 51 52 52 48 51 51 56 55 57 60 55 53 57 60 57 55 55 56 59 60 63 65 66 67 64 61 62 62 63 63 64 64 64 64
56 55 55 55 55 55 55 55 55 55 55 50 47 46 53 58 54 51 47 47 48 48 50 49 51 51 57 55 60 58 55 54 53 58 57 52 53 57 60 61 62 64 65 65 66 64 64 64 63 63 63 65 65 65
55 55 55 55 55 55 55 55 55 51 50 50 51 54 54 51 47 45 44 44 46 46 50 50 52 54 55 59 60 56 53 52 53 59 55 49 55 58 60 63 63 64 67 67 68 66 65 65 64 63 62 63 63 63
55 55 55 55 55 55 54 54 54 54 53 53 50 49 48 46 39 39 39 42 42 48 52 54 52 54 54 58 53 53 51 51 55 51 50 52 55 59 60 62 63 65 68 67 66 66 66 66 66 64 63 63 62 63
54 54 55 55 55 55 55 55 54 53 50 46 46 41 43 40 41 42 44 45 50 53 53 53 52 51 52 52 53 53 52 54 49 47 50 52 55 57 59 62 65 63 64 64 64 65 64 64 64 63 63 62 62 62
54 54 55 54 55 54 54 54 54 51 48 46 48 39 41 47 50 52 52 51 52 55 53 53 53 51 50 52 51 51 50 48 51 49 51 53 54 56 57 60 60 60 61 61 62 62 63 62 62 62 62 61 61 62
54 54 51 54 55 54 53 53 52 51 50 50 49 47 49 48 48 50 50 51 54 54 54 53 52 51 51 53 50 50 52 49 50 53 53 55 55 56 57 59 59 60 60 60 60 61 61 61 60 60 60 61 61 61
54 50 54 54 54 54 54 52 51 49 49 50 49 52 51 51 50 51 52 52 55 52 50 50 52 53 54 53 49 49 48 50 55 55 55 56 56 57 58 59 59 59 59 59 59 59 60 60 59 60 59 60 60 60
51 52 54 54 54 53 53 52 51 50 48 50 48 51 52 52 51 52 53 54 52 52 52 49 54 49 48 46 48 52 53 53 55 56 56 57 57 57 59 58 59 59 59 59 58 58 59 58 58 57 58 60 60 60
54 53 54 54 54 51 50 52 51 47 50 51 52 53 53 53 54 55 54 53 55 54 51 50 50 49 50 53 53 51 52 53 53 53 54 56 57 58 58 59 59 58 57 57 57 57 58 58 57 58 58 59 58 56
54 54 54 54 54 50 50 50 54 50 48 50 51 51 51 51 52 51 51 51 51 49 47 47 46 48 48 50 54 52 52 53 55 53 53 53 55 56 57 57 56 57 57 57 57 54 57 57 57 57 57 56 56 56
55 55 54 54 52 51 50 52 50 51 51 50 52 52 50 51 48 46 48 49 47 46 46 48 49 50 52 53 53 55 53 54 53 53 53 53 54 56 56 56 57 56 56 56 56 55 54 55 56 56 56 55 56 56
54 57 52 53 50 53 52 55 51 53 51 51 51 52 49 47 46 47 49 45 45 47 49 48 47 49 50 51 52 53 52 54 55 54 52 52 54 55 55 55 55 55 55 55 55 55 54 55 56 56 56 55 54 55
55 54 54 53 52 48 48 55 51 52 49 48 50 48 46 44 46 47 44 45 45 49 46 46 47 48 47 49 50 52 53 54 53 54 55 55 55 55 55 54 55 55 54 54 55 55 55 51 54 56 56 56 56 55
55 53 51 50 51 47 53 51 51 50 50 47 46 44 46 43 45 44 42 45 48 49 48 49 50 50 52 53 52 52 52 52 53 54 55 54 53 53 54 54 54 55 58 57 55 54 55 55 51 55 55 55 57 57
45 48 47 39 51 51 51 52 50 48 44 45 45 43 43 44 41 42 42 45 47 48 49 50 50 50 50 48 51 54 53 52 52 53 54 54 53 53 53 53 53 54 57 55 54 55 55 55 55 55 54 54 55 55
40 50 45 49 48 50 49 46 46 45 45 45 43 44 44 43 42 41 44 47 48 49 50 50 50 50 50 51 52 53 51 51 51 53 53 54 54 54 53 51 51 52 54 54 54 55 55 55 55 55 55 51 44 54
43 46 49 50 49 49 47 47 47 46 45 42 43 46 46 39 37 45 50 51 51 52 52 52 51 51 51 53 55 53 53 52 55 54 54 54 54 54 54 53 51 53 54 56 55 55 55 56 56 55 55 55 55 55
46 48 45 47 48 47 47 46 48 49 45 45 46 45 43 42 43 50 52 56 56 55 55 54 55 55 55 57 55 53 53 57 58 56 56 56 53 53 54 53 54 48 54 56 56 56 57 57 57 57 57 55 53 54
46 51 48 46 48 51 49 46 47 47 48 47 44 43 44 47 54 55 55 56 55 57 55 55 55 56 56 56 55 53 53 54 55 52 50 48 49 52 53 53 54 55 53 55 49 52 57 58 57 57 58 55 53 53
49 48 47 47 48 48 48 49 49 50 49 49 48 49 51 52 54 56 57 56 55 55 56 55 56 54 53 54 51 52 51 51 51 50 48 48 49 50 50 52 53 53 53 58 57 57 49 54 53 57 54 53 51 51
49 48 49 49 48 49 51 53 53 53 51 51 53 52 51 52 54 55 57 57 56 56 53 54 52 52 51 51 49 49 48 48 48 49 47 47 46 48 50 51 51 51 55 56 55 55 55 53 53 54 54 53 52 51
52 53 52 48 47 52 54 52 51 50 51 52 51 52 52 51 50 53 55 54 55 53 51 54 54 52 53 52 50 50 48 48 48 48 48 47 46 46 46 47 49 53 54 54 53 53 53 52 51 51 51 51 51 51
53 51 51 50 49 52 54 55 51 50 50 49 50 51 51 51 51 54 57 56 58 56 55 55 56 55 55 54 53 51 48 50 47 45 44 44 43 44 45 47 50 52 52 51 51 51 51 51 50 50 50 50 49 49
MSLP
1016.99 1016.80 1016.57 1016.38 1016.13 1015.99 1015.77 1015.58 1015.49 1015.42 1015.42 1015.45 1015.53 1015.67 1015.83 1015.99 1016.11 1016.52 1016.71 1016.40 1016.39 1015.38 1013.81 1013.03 1012.42 1011.95 1011.58 1011.24 1010.95 1009.02 1007.43 1006.29 1005.01 1004.36 1004.37 1004.39 1004.15 1004.45 1005.22 1006.12 1006.26 1006.54 1007.13 1008.01 1008.00 1007.18 1006.40 1005.14 1004.75 1004.74 1004.31 1004.87 1004.87 1006.00
1016.09 1015.87 1015.65 1015.39 1015.21 1015.07 1014.89 1014.72 1014.63 1014.59 1014.61 1014.73 1014.91 1015.13 1015.38 1015.55 1015.74 1016.00 1016.49 1016.07 1015.71 1015.85 1013.99 1012.92 1011.97 1011.08 1011.35 1010.96 1011.25 1010.42 1009.43 1008.18 1006.71 1006.03 1005.35 1005.25 1005.06 1005.40 1006.21 1006.95 1006.67 1006.88 1006.84 1007.02 1007.51 1006.91 1005.87 1005.05 1004.58 1004.22 1004.22 1004.59 1004.83 1005.17
1015.10 1014.82 1014.55 1014.30 1014.16 1014.07 1013.98 1013.85 1013.79 1013.80 1013.88 1014.08 1014.22 1014.57 1014.90 1015.14 1015.33 1015.57 1016.05 1016.03 1015.80 1015.13 1013.56 1012.43 1010.18 1008.59 1009.19 1009.20 1010.07 1010.95 1008.41 1007.33 1006.92 1007.05 1006.93 1005.86 1005.49 1005.61 1006.57 1007.07 1006.77 1006.52 1006.62 1006.92 1007.17 1007.02 1006.33 1005.53 1004.86 1004.51 1004.45 1004.63 1004.79 1005.71
1014.13 1013.78 1013.44 1013.16 1013.07 1013.05 1013.01 1012.97 1013.02 1013.12 1013.29 1013.47 1013.65 1014.09 1014.43 1014.71 1014.82 1015.11 1015.59 1015.69 1015.81 1015.35 1013.68 1010.34 1008.47 1008.23 1007.18 1007.37 1008.38 1008.52 1007.81 1007.44 1007.71 1007.47 1007.09 1006.30 1005.64 1005.38 1006.53 1006.73 1006.78 1006.51 1006.35 1007.03 1007.21 1006.91 1006.48 1006.35 1005.85 1005.66 1005.27 1005.12 1005.33 1005.52
1013.11 1012.79 1012.47 1012.22 1012.10 1012.09 1012.11 1012.23 1012.37 1012.48 1012.68 1012.85 1013.23 1013.70 1014.01 1014.27 1014.41 1014.77 1015.00 1015.00 1015.01 1015.28 1013.71 1011.24 1009.09 1005.96 1005.92 1006.50 1006.94 1007.49 1008.19 1008.46 1008.15 1007.55 1006.97 1006.21 1005.53 1005.79 1006.95 1007.09 1007.08 1006.58 1006.31 1006.68 1006.91 1006.71 1006.47 1007.19 1006.69 1006.35 1006.12 1006.18 1006.31 1006.20
1012.18 1011.82 1011.40 1011.26 1011.20 1011.23 1011.31 1011.44 1011.57 1011.88 1012.12 1012.40 1012.91 1013.35 1013.66 1013.91 1014.33 1014.89 1015.05 1014.27 1014.52 1014.95 1014.57 1012.18 1008.42 1006.15 1004.54 1004.97 1005.92 1006.90 1007.63 1008.07 1007.74 1007.59 1006.76 1005.70 1005.21 1005.48 1007.40 1007.99 1006.85 1006.37 1005.93 1006.11 1006.33 1006.67 1006.76 1006.91 1007.15 1007.30 1007.01 1007.28 1007.39 1007.30
1011.28 1010.99 1010.75 1010.51 1010.34 1010.31 1010.31 1010.53 1010.91 1011.28 1011.66 1012.19 1012.69 1013.09 1013.33 1013.65 1014.19 1014.33 1014.07 1013.96 1014.23 1014.70 1013.96 1012.15 1009.05 1005.96 1004.83 1005.37 1005.97 1006.55 1006.88 1006.97 1007.24 1007.31 1006.97 1006.15 1006.05 1005.73 1007.40 1007.94 1007.10 1006.58 1006.13 1006.31 1006.40 1006.67 1007.53 1007.47 1008.00 1007.78 1007.73 1007.87 1007.71 1008.02
1010.57 1010.41 1010.15 1009.82 1009.53 1009.45 1009.39 1009.71 1010.37 1010.84 1011.44 1012.07 1012.58 1012.93 1013.27 1013.67 1014.10 1013.91 1012.83 1013.29 1014.17 1014.09 1013.15 1011.60 1008.82 1006.61 1004.47 1005.56 1005.81 1005.86 1006.46 1006.77 1006.72 1007.09 1006.84 1006.84 1006.75 1006.79 1007.87 1007.59 1007.08 1007.02 1006.73 1006.96 1007.19 1007.19 1008.03 1008.29 1008.19 1008.57 1008.49 1008.46 1008.79 1009.36
1010.19 1010.08 1009.87 1009.51 1009.17 1008.96 1009.22 1009.68 1010.15 1010.87 1011.53 1012.09 1012.52 1012.99 1013.50 1013.78 1013.86 1012.74 1012.09 1012.47 1012.99 1013.20 1012.01 1010.68 1008.84 1006.77 1004.59 1004.87 1004.99 1005.59 1006.65 1007.05 1006.44 1006.66 1007.05 1006.77 1007.68 1007.75 1007.09 1007.20 1007.31 1007.01 1007.13 1008.04 1008.11 1008.37 1008.71 1009.07 1009.48 1009.60 1009.57 1009.81 1010.04 1010.40
1009.82 1009.84 1009.82 1009.71 1009.44 1009.39 1009.45 1009.87 1010.48 1011.13 1011.69 1012.15 1012.78 1013.06 1012.93 1012.36 1011.77 1011.71 1011.74 1012.21 1012.61 1011.86 1011.36 1010.17 1008.57 1007.28 1005.92 1005.48 1005.71 1006.49 1006.69 1007.01 1006.83 1006.58 1006.99 1007.35 1007.99 1007.69 1007.07 1007.19 1007.07 1007.17 1007.45 1007.79 1008.53 1009.53 1009.72 1010.14 1010.31 1010.42 1010.49 1010.63 1010.71 1010.87
1009.71 1009.75 1009.83 1009.87 1009.97 1010.11 1010.24 1010.45 1010.85 1011.41 1011.87 1012.31 1012.43 1012.09 1011.47 1011.29 1011.67 1011.48 1011.18 1010.44 1010.95 1010.67 1010.06 1009.08 1008.29 1007.49 1005.99 1005.40 1005.43 1005.82 1006.31 1006.70 1007.24 1006.77 1007.02 1008.15 1008.20 1007.85 1007.64 1007.64 1007.56 1007.65 1007.84 1008.03 1008.43 1009.32 1009.81 1010.15 1010.57 1010.76 1010.96 1010.97 1010.97 1011.05
1009.81 1009.83 1009.86 1009.97 1010.09 1010.21 1010.44 1010.69 1011.04 1011.37 1011.73 1011.72 1011.53 1010.89 1011.05 1011.13 1011.15 1011.18 1011.06 1010.87 1010.46 1009.65 1008.80 1008.25 1007.88 1007.53 1006.58 1005.20 1005.12 1006.35 1006.11 1006.36 1006.28 1005.94 1007.14 1008.51 1008.19 1007.89 1007.99 1008.02 1008.08 1008.14 1008.38 1008.88 1009.16 1009.84 1010.16 1010.39 1010.60 1010.79 1010.97 1011.04 1011.09 1011.16
1009.90 1009.84 1009.79 1009.89 1010.05 1010.14 1010.44 1010.71 1011.33 1011.50 1011.41 1011.44 1011.19 1010.29 1010.21 1010.39 1010.47 1010.27 1009.79 1009.72 1009.16 1008.41 1007.95 1007.31 1007.59 1007.46 1006.19 1005.28 1005.10 1005.53 1005.99 1006.20 1005.89 1006.49 1007.80 1008.31 1008.11 1008.13 1008.31 1008.30 1008.81 1008.84 1009.00 1009.45 1009.91 1009.96 1010.11 1010.38 1010.50 1010.71 1010.99 1011.12 1011.13 1011.07
1010.21 1010.12 1009.97 1010.04 1010.25 1010.42 1010.62 1011.07 1011.47 1011.77 1011.99 1011.25 1010.13 1010.01 1009.39 1009.20 1008.77 1008.14 1007.75 1007.71 1007.72 1007.27 1007.21 1007.97 1007.91 1007.55 1006.36 1005.37 1005.27 1006.05 1006.36 1006.08 1006.56 1007.45 1008.04 1008.26 1008.20 1008.48 1008.68 1008.86 1009.11 1009.53 1009.60 1009.85 1010.11 1010.26 1010.50 1010.67 1010.85 1010.98 1011.05 1011.09 1011.05 1011.02
1010.37 1010.33 1010.29 1010.39 1010.58 1010.56 1010.76 1011.21 1011.49 1011.85 1011.64 1010.13 1009.23 1008.82 1008.29 1007.42 1006.91 1006.63 1006.72 1006.83 1006.87 1007.45 1007.32 1007.94 1007.61 1006.89 1005.99 1005.65 1005.63 1006.03 1006.27 1006.64 1006.95 1007.61 1007.93 1008.22 1008.65 1008.91 1009.21 1009.41 1009.63 1009.95 1010.23 1010.46 1010.55 1010.73 1010.85 1011.00 1011.07 1011.13 1011.11 1011.01 1010.95 1010.89
1010.72 1010.59 1010.64 1010.48 1010.58 1010.86 1011.08 1011.26 1011.47 1011.45 1010.37 1009.11 1008.46 1007.61 1006.93 1006.81 1006.56 1006.03 1006.27 1006.32 1005.94 1005.85 1007.05 1007.59 1006.88 1006.44 1006.13 1005.94 1006.09 1006.39 1006.53 1006.93 1007.43 1007.78 1008.16 1008.67 1009.27 1009.49 1009.80 1009.97 1010.17 1010.34 1010.51 1010.71 1010.84 1010.95 1011.03 1011.05 1011.06 1011.07 1010.99 1010.89 1010.81 1010.90
1010.45 1010.44 1010.33 1010.49 1010.53 1010.59 1010.60 1010.80 1010.49 1010.13 1009.20 1007.84 1006.77 1006.27 1006.37 1006.49 1006.21 1005.77 1005.81 1006.53 1006.65 1007.75 1007.99 1007.88 1006.22 1005.88 1005.51 1005.95 1007.02 1007.40 1007.45 1007.45 1007.52 1008.44 1008.90 1009.20 1009.53 1009.91 1010.17 1010.33 1010.49 1010.65 1010.84 1010.96 1011.07 1011.14 1011.10 1011.00 1010.90 1010.88 1010.90 1010.79 1010.81 1010.95
1010.37 1010.22 1010.26 1010.34 1010.45 1010.23 1009.79 1009.67 1009.33 1008.95 1008.03 1006.96 1006.30 1005.80 1005.55 1005.67 1005.74 1005.69 1005.64 1005.65 1006.39 1005.46 1004.82 1004.60 1004.78 1006.35 1007.29 1007.74 1008.34 1008.43 1008.35 1008.51 1008.79 1009.12 1009.57 1009.87 1010.08 1010.20 1010.24 1010.54 1010.67 1010.83 1011.01 1011.15 1011.19 1011.21 1011.15 1011.01 1010.95 1010.94 1010.85 1010.89 1011.15 1011.36
1009.88 1009.99 1009.95 1009.98 1009.97 1009.95 1009.47 1008.68 1008.49 1007.66 1006.77 1006.06 1005.64 1005.71 1005.51 1006.03 1005.99 1005.85 1005.53 1005.50 1004.92 1004.38 1005.00 1006.60 1007.55 1008.61 1009.00 1009.14 1009.07 1008.98 1009.10 1009.31 1009.69 1010.05 1010.25 1010.23 1010.17 1010.29 1010.46 1010.64 1010.86 1011.05 1011.12 1011.22 1011.30 1011.38 1011.36 1011.32 1011.31 1011.27 1011.30 1011.26 1011.56 1011.81
1008.82 1008.88 1008.93 1009.45 1009.60 1009.51 1008.86 1008.10 1007.61 1006.92 1006.65 1006.86 1006.45 1006.16 1006.17 1006.40 1006.61 1006.47 1005.64 1005.23 1005.33 1006.39 1007.97 1009.24 1010.15 1010.57 1010.65 1010.54 1010.24 1010.17 1010.09 1009.94 1009.96 1010.49 1010.97 1010.91 1010.69 1010.61 1010.74 1010.81 1010.98 1011.18 1011.37 1011.52 1011.61 1011.66 1011.68 1011.68 1011.64 1011.59 1011.62 1011.80 1011.95 1012.09
1008.37 1008.59 1008.50 1008.97 1009.26 1009.08 1008.34 1007.28 1007.22 1007.07 1006.80 1006.59 1006.26 1006.34 1006.92 1007.03 1007.19 1007.31 1007.71 1007.75 1008.52 1009.61 1010.65 1011.16 1011.45 1011.50 1011.35 1011.14 1011.03 1010.82 1010.61 1010.45 1010.67 1010.80 1011.13 1011.31 1011.21 1011.02 1011.15 1011.28 1011.35 1011.53 1011.65 1011.81 1011.90 1011.97 1011.90 1011.97 1012.03 1012.01 1012.06 1012.21 1012.23 1012.31
1008.12 1008.13 1008.48 1008.89 1008.64 1007.90 1007.68 1006.99 1007.01 1006.93 1006.94 1006.96 1006.82 1006.94 1007.26 1007.72 1008.19 1008.66 1008.97 1009.41 1011.03 1011.86 1011.98 1012.16 1012.13 1012.01 1011.91 1011.77 1011.58 1011.25 1011.20 1011.05 1010.93 1010.95 1011.07 1011.25 1011.45 1011.60 1011.71 1011.74 1011.81 1012.02 1012.08 1012.14 1012.15 1012.24 1012.26 1012.23 1012.20 1012.26 1012.35 1012.52 1012.53 1012.59
1007.87 1007.97 1007.97 1008.36 1008.20 1007.88 1007.49 1006.81 1006.89 1006.89 1007.08 1007.54 1007.73 1008.39 1009.00 1009.29 1009.73 1009.45 1010.59 1011.66 1012.45 1012.55 1012.65 1012.65 1012.57 1012.30 1012.08 1011.81 1011.63 1011.45 1011.31 1011.23 1011.25 1011.20 1011.20 1011.31 1011.46 1011.67 1011.86 1012.01 1012.04 1012.11 1012.29 1012.38 1012.31 1012.41 1012.46 1012.41 1012.45 1012.53 1012.62 1012.68 1012.72 1012.76
1007.74 1007.83 1007.81 1007.79 1007.72 1007.62 1007.21 1006.85 1006.55 1007.06 1007.54 1008.35 1009.09 1009.72 1010.14 1010.50 1010.71 1011.26 1012.22 1012.51 1012.46 1012.37 1012.42 1012.43 1012.28 1012.25 1012.11 1012.01 1011.94 1011.75 1011.53 1011.40 1011.35 1011.33 1011.38 1011.53 1011.90 1012.14 1012.13 1012.22 1012.17 1012.10 1012.07 1012.29 1012.45 1012.54 1012.61 1012.70 1012.69 1012.75 1012.83 1012.87 1012.86 1012.87
1008.66 1008.56 1008.32 1008.13 1007.43 1007.21 1007.11 1007.41 1007.95 1008.11 1008.69 1009.11 1009.65 1010.41 1010.81 1010.84 1011.67 1012.33 1012.73 1012.77 1012.66 1012.56 1012.51 1012.39 1012.38 1012.37 1012.39 1012.31 1012.17 1011.87 1011.65 1011.57 1011.63 1011.78 1011.75 1011.66 1011.93 1012.24 1012.43 1012.45 1012.40 1012.30 1012.23 1012.43 1012.66 1012.72 1012.79 1012.85 1012.91 1012.98 1013.03 1013.09 1013.13 1013.15
1009.15 1008.77 1008.83 1008.48 1008.21 1007.93 1007.93 1008.09 1008.22 1008.68 1009.20 1009.73 1010.40 1010.71 1010.87 1011.54 1012.28 1012.78 1012.79 1012.68 1012.74 1012.76 1012.77 1012.76 1012.67 1012.63 1012.50 1012.30 1012.07 1011.97 1011.85 1011.69 1011.79 1011.89 1012.11 1012.06 1012.10 1012.20 1012.53 1012.73 1012.75 1012.58 1012.41 1012.49 1012.66 1012.79 1012.79 1012.80 1012.91 1013.01 1013.19 1013.33 1013.34 1013.19
1009.90 1009.60 1009.01 1008.75 1008.69 1008.50 1008.61 1008.67 1008.84 1009.10 1009.52 1009.95 1010.41 1010.64 1010.93 1011.79 1012.27 1012.42 1012.26 1012.21 1012.29 1012.28 1012.47 1012.63 1012.65 1012.51 1012.43 1012.16 1011.84 1011.68 1011.58 1011.83 1011.95 1012.16 1012.34 1012.28 1012.31 1012.27 1012.45 1012.61 1012.57 1012.48 1012.37 1012.40 1012.49 1012.53 1012.59 1012.65 1012.76 1012.90 1013.01 1013.11 1013.12 1013.16
1010.31 1010.01 1009.85 1009.43 1009.05 1008.84 1008.94 1009.10 1009.38 1009.63 1009.99 1010.14 1010.48 1010.84 1011.19 1011.59 1011.83 1011.71 1011.63 1011.53 1011.74 1012.11 1012.43 1012.44 1012.21 1012.25 1012.31 1012.35 1012.23 1012.08 1011.88 1011.90 1012.18 1012.25 1012.21 1012.34 1012.57 1012.60 1012.49 1012.37 1012.23 1012.07 1011.96 1012.07 1012.24 1012.27 1012.24 1012.36 1012.59 1012.63 1012.79 1012.96 1013.05 1012.90
1010.42 1010.05 1009.91 1009.87 1009.55 1009.31 1009.41 1009.60 1009.67 1009.70 1009.81 1009.97 1010.41 1010.77 1011.12 1010.91 1010.86 1011.07 1011.31 1011.44 1011.64 1011.85 1012.31 1012.63 1012.86 1012.82 1012.79 1012.85 1012.78 1012.70 1012.63 1012.58 1012.50 1013.03 1013.33 1013.68 1013.76 1013.44 1013.09 1012.72 1012.23 1011.89 1011.92 1011.83 1011.75 1011.79 1011.75 1011.96 1012.23 1012.26 1012.60 1012.83 1012.94 1013.00
1010.46 1010.20 1010.25 1010.17 1010.09 1010.01 1009.88 1009.63 1009.56 1009.58 1009.75 1009.87 1010.03 1010.32 1010.66 1010.90 1011.10 1011.04 1011.29 1011.74 1012.07 1012.20 1012.39 1012.67 1012.94 1013.23 1013.41 1013.36 1013.69 1013.82 1013.74 1013.62 1013.46 1013.66 1014.00 1014.29 1014.33 1014.13 1013.66 1013.06 1012.55 1012.14 1011.82 1011.58 1011.89 1012.05 1012.04 1012.17 1012.38 1012.52 1012.93 1013.32 1013.46 1013.54
1010.22 1010.20 1010.21 1010.22 1010.33 1010.14 1009.86 1009.59 1009.47 1009.51 1009.82 1010.25 1010.58 1011.02 1011.39 1011.45 1011.23 1011.13 1011.30 1011.46 1011.65 1011.92 1012.26 1012.60 1013.08 1013.32 1013.56 1013.62 1013.75 1014.07 1014.40 1014.43 1014.17 1014.08 1014.21 1014.41 1014.43 1014.23 1013.81 1013.22 1012.75 1012.40 1012.23 1012.20 1012.40 1012.58 1012.74 1012.95 1013.14 1013.37 1013.63 1013.89 1014.05 1014.07
1009.97 1009.92 1010.04 1010.41 1010.65 1010.34 1009.98 1010.19 1010.36 1010.63 1010.90 1011.04 1011.23 1011.24 1011.44 1011.61 1011.69 1011.39 1010.78 1011.00 1011.48 1011.89 1012.29 1012.45 1012.76 1013.16 1013.10 1013.31 1013.55 1013.67 1013.73 1014.29 1014.47 1014.48 1014.51 1014.53 1014.47 1014.19 1013.85 1013.51 1013.12 1012.88 1012.87 1013.02 1013.19 1013.36 1013.42 1013.61 1013.84 1013.99 1014.18 1014.32 1014.35 1014.37
1009.97 1010.09 1010.29 1010.51 1010.53 1010.50 1010.33 1010.45 1010.83 1011.14 1011.19 1011.39 1011.36 1011.38 1011.44 1011.56 1011.54 1011.24 1010.82 1010.77 1010.88 1011.41 1011.83 1011.91 1012.06 1012.24 1012.59 1013.01 1013.39 1013.61 1013.75 1013.96 1014.14 1014.26 1014.33 1014.34 1014.27 1014.17 1014.08 1013.97 1013.80 1013.69 1013.70 1013.87 1013.98 1013.99 1014.09 1014.19 1014.31 1014.35 1014.40 1014.46 1014.50 1014.50
Wind_Speed
18 20 20 20 19 18 19 18 17 17 17 15 14 13 12 11 8 5 3 3 2 3 6 5 5 4 5 1 2 6 8 5 5 6 3 3 3 2 6 1 1 4 6 2 3 4 3 0 3 6 7 0 5 5
19 20 20 20 19 19 18 17 17 16 17 17 15 14 12 10 8 8 3 2 3 4 5 7 16 19 12 12 1 4 5 4 2 4 4 0 3 3 3 1 0 2 4 6 4 5 4 5 3 1 4 6 5 8
20 21 21 21 20 19 18 17 17 15 15 15 15 14 12 10 9 8 3 2 1 3 7 11 15 17 18 22 15 4 5 3 4 1 2 4 4 4 4 2 2 2 3 5 5 8 5 4 4 3 2 2 4 6
20 20 20 19 19 18 17 17 14 14 14 14 15 13 11 10 11 8 3 3 1 3 5 8 4 10 7 12 18 20 17 7 3 2 5 3 3 2 2 4 3 3 2 4 3 3 8 10 6 3 6 7 8 7
20 19 18 17 17 17 16 14 14 14 14 13 14 12 11 10 9 4 2 4 3 1 4 7 15 15 15 11 16 17 15 7 2 4 2 3 3 5 3 4 3 1 6 5 5 3 7 3 2 1 7 6 6 9
18 19 18 15 14 15 16 16 15 14 13 14 13 11 9 10 7 3 3 4 5 3 4 5 6 6 3 3 10 12 10 5 3 4 4 2 2 6 5 3 5 3 3 5 7 4 4 7 7 1 8 7 6 7
17 14 14 14 15 16 17 15 15 13 14 13 11 9 8 9 3 4 2 3 5 3 4 5 6 5 6 4 3 3 4 4 3 1 2 2 3 5 4 4 4 2 7 7 7 7 11 9 4 6 9 7 11 9
11 11 10 11 10 10 11 14 13 14 15 12 9 8 7 8 3 5 4 10 7 4 3 4 6 5 6 4 3 2 2 2 2 3 2 0 3 3 5 4 3 3 11 12 12 12 8 7 13 11 9 11 14 10
9 7 6 7 4 6 11 13 15 16 13 11 9 12 4 2 3 5 8 10 5 3 3 4 3 4 4 1 2 3 3 1 2 2 2 3 2 2 7 8 8 5 7 9 10 13 13 14 10 9 11 10 11 7
5 2 1 3 6 10 11 15 14 13 11 12 4 2 3 5 8 5 6 5 4 5 5 4 3 4 2 1 2 3 1 4 1 2 2 4 1 4 0 1 7 9 12 11 15 8 8 8 8 7 8 5 6 5
0 2 3 4 6 7 5 10 11 11 10 1 3 4 2 7 3 3 3 2 3 1 3 4 5 3 4 3 3 3 3 4 3 5 5 2 2 2 3 6 5 8 8 9 10 7 8 9 7 7 6 5 5 5
0 3 4 5 6 6 9 10 16 4 3 3 2 3 3 4 2 3 3 0 4 6 3 4 4 3 5 3 5 2 3 2 6 3 6 2 4 2 5 7 7 9 11 10 11 10 8 8 7 7 5 4 3 0
2 2 2 6 7 8 11 15 10 9 3 1 4 4 4 2 4 6 7 4 4 5 3 1 2 3 4 2 5 4 3 4 2 5 5 5 3 5 6 6 7 7 12 11 8 7 8 7 6 5 4 3 3 3
6 7 6 8 9 9 10 10 9 6 1 5 4 4 3 5 6 6 5 5 5 2 5 3 2 4 3 1 3 6 5 2 3 4 5 3 6 7 5 6 12 7 8 9 8 7 7 6 4 4 4 2 3 4
4 5 5 4 8 9 7 8 8 2 3 5 3 4 7 5 3 3 4 3 3 3 5 2 4 4 1 5 1 4 2 2 1 4 4 3 5 7 7 6 8 8 7 6 5 5 5 4 3 3 4 5 3 1
4 4 0 3 5 7 8 5 3 3 4 4 4 3 3 1 2 2 3 2 1 2 3 3 3 5 5 1 3 2 5 3 4 3 4 6 6 6 6 6 7 6 6 5 4 3 2 2 2 3 4 3 2 2
3 3 6 7 7 7 9 3 4 7 4 4 4 3 3 3 3 3 3 4 4 3 6 5 9 7 3 4 4 3 1 2 8 6 3 5 7 7 6 7 6 6 6 4 2 2 1 3 2 1 3 2 2 4
2 2 5 6 4 4 2 4 2 3 6 6 3 2 2 2 2 1 2 3 4 4 3 4 3 7 5 4 2 2 3 3 4 5 4 5 5 6 6 7 4 4 4 3 2 1 3 4 3 2 1 3 4 4
3 4 8 7 3 2 2 4 3 4 3 2 2 1 1 3 4 2 1 3 4 0 6 5 7 4 4 3 3 2 4 3 3 2 3 4 5 6 5 4 4 4 2 2 3 3 2 3 2 2 2 3 4 2
13 12 12 9 5 2 3 3 3 2 4 3 1 4 3 2 2 4 8 7 5 5 7 6 4 3 2 3 3 3 2 2 5 5 4 4 3 4 3 2 2 5 5 4 4 3 2 2 3 4 4 3 4 3
4 5 8 7 3 4 3 3 2 0 1 2 3 3 3 1 4 4 4 3 6 5 4 3 2 2 3 2 3 2 5 4 3 3 3 2 2 4 4 4 5 3 3 2 3 2 3 2 1 2 4 4 3 3
3 7 3 2 3 4 3 1 1 0 2 0 4 4 4 4 5 6 3 8 5 3 3 2 2 2 3 2 3 3 2 3 3 3 3 4 2 2 2 2 3 3 3 2 3 3 2 2 3 4 4 3 3 3
5 3 2 3 1 3 5 1 1 0 2 2 3 4 4 4 3 3 5 4 2 1 1 1 2 2 1 4 3 3 2 3 1 2 3 3 3 4 4 3 2 4 4 2 2 3 3 4 4 4 3 3 2 2
3 1 2 2 2 2 2 3 1 3 4 4 4 4 4 2 3 5 4 3 3 3 3 3 1 2 1 2 1 2 3 1 2 3 3 5 4 2 3 3 2 3 3 3 3 3 3 4 4 4 4 4 4 3
5 6 4 6 2 4 5 3 3 4 4 3 3 3 2 3 4 4 2 3 3 3 3 3 3 3 2 1 2 2 3 2 3 3 0 2 4 3 3 3 2 1 1 4 3 3 3 3 3 4 4 4 5 4
5 4 4 4 4 4 4 4 4 3 3 3 2 0 3 4 3 2 1 1 1 1 0 2 2 2 3 1 0 1 1 1 2 3 4 0 2 4 3 3 1 2 0 2 3 2 2 2 3 4 4 3 2 2
4 5 4 1 1 1 4 3 2 5 4 2 1 1 3 4 2 1 1 2 2 2 3 3 2 3 2 3 2 3 2 4 5 4 1 4 4 3 3 3 1 3 2 3 3 2 1 4 3 3 3 1 3 3
1 2 4 7 4 2 2 2 3 2 1 1 3 3 3 5 4 3 4 3 3 4 4 0 3 3 2 3 3 3 5 6 7 4 3 4 5 4 5 3 2 1 2 3 3 2 3 3 3 4 3 3 2 1
2 4 2 6 5 4 3 2 0 2 2 2 3 2 2 2 3 3 2 2 3 4 3 4 4 3 4 4 5 5 5 4 7 9 7 3 5 5 6 5 5 5 2 3 1 4 4 4 3 5 6 5 4 4
2 2 2 3 3 4 3 1 1 1 2 2 3 3 5 4 2 2 4 3 3 4 3 3 4 3 3 4 4 6 5 4 4 4 4 2 1 4 5 5 5 5 3 5 6 6 9 5 6 6 6 4 4 4
1 1 1 1 2 3 2 2 3 3 4 5 4 5 2 1 3 1 3 3 2 2 4 6 5 4 5 5 4 4 3 3 4 6 5 3 0 2 4 5 4 3 3 5 6 6 7 6 6 7 6 6 5 4
1 1 3 4 2 4 3 4 3 4 4 4 3 2 2 3 2 4 1 4 5 4 2 6 7 6 5 3 3 3 6 5 4 4 5 3 2 2 3 4 4 4 5 6 5 5 8 8 6 6 6 7 6 6
4 4 4 4 5 4 3 4 3 3 3 2 1 2 2 4 3 4 2 1 6 9 7 5 5 5 8 8 8 6 6 5 6 6 6 6 6 6 4 4 5 6 7 6 6 6 7 8 6 6 7 6 5 4
Wind_Direction
280 281 280 278 277 275 274 274 270 262 254 252 250 243 250 259 260 160 251 218 226 259 286 291 301 291 332 219 278 311 338 326 338 36 94 200 105 134 86 129 88 130 117 139 97 90 139 321 321 164 202 99 148 115
280 278 277 274 273 273 272 269 267 259 243 238 240 232 240 250 252 187 238 270 226 225 287 290 265 254 237 243 25 307 256 290 291 6 14 288 102 77 146 98 20 53 170 151 149 202 265 274 258 223 146 154 182 168
279 276 272 270 268 267 270 268 263 256 236 235 231 221 231 237 241 199 189 259 336 267 284 242 252 267 224 225 203 203 272 261 0 133 270 263 92 125 117 219 139 13 166 89 83 340 345 11 12 76 69 328 79 95
282 282 279 271 265 263 263 261 251 242 232 235 216 214 222 234 238 192 196 190 131 290 272 274 286 254 244 208 191 208 239 294 327 173 216 241 118 93 154 141 120 196 83 120 85 235 73 29 18 30 51 50 57 59
284 279 278 273 265 260 258 248 245 239 226 228 205 208 215 233 227 210 198 211 199 231 301 300 306 267 232 184 197 206 220 237 301 303 222 203 139 97 29 66 3 197 158 137 189 216 127 151 18 44 80 63 61 78
282 280 279 268 261 255 251 247 231 229 226 199 193 200 218 212 166 117 287 211 191 172 284 288 281 285 300 156 161 182 194 204 200 207 260 305 336 100 93 82 283 295 140 181 152 143 118 126 104 107 99 99 90 84
285 283 277 270 261 254 247 233 215 211 191 178 183 198 202 187 152 186 220 56 99 152 241 271 272 251 211 190 130 155 180 203 202 165 265 59 333 73 95 131 225 11 83 79 117 120 53 44 64 52 81 74 72 65
277 281 288 292 267 253 243 186 191 177 164 166 176 184 180 168 40 303 260 179 145 226 241 260 266 313 170 177 163 144 174 4 248 177 4 171 2 47 77 244 135 102 87 69 68 74 106 102 68 54 60 68 64 56
281 285 315 331 290 236 174 172 155 153 155 159 163 126 108 139 198 236 201 172 169 245 242 231 253 217 330 131 100 65 127 275 300 88 230 84 321 113 186 165 164 186 120 135 86 85 81 78 78 66 70 62 72 55
249 250 12 73 56 85 114 131 136 143 152 147 114 161 207 211 205 160 179 175 180 194 216 252 257 270 48 36 58 99 21 184 319 274 86 69 277 282 321 142 129 127 130 126 100 89 93 80 86 80 82 80 85 78
27 146 158 140 136 124 140 146 147 139 118 127 169 221 200 155 155 213 236 193 156 195 209 237 206 251 307 135 157 128 207 144 146 235 118 17 332 219 124 117 121 116 113 92 101 107 113 121 118 102 84 78 80 87
246 172 163 161 156 180 185 172 148 115 172 196 251 234 155 183 167 162 203 238 232 212 216 202 202 202 281 196 118 218 180 79 189 151 82 133 250 177 134 126 112 105 105 103 113 117 116 110 116 107 97 72 43 284
69 128 78 146 136 135 135 138 83 53 35 285 222 202 177 173 146 193 185 201 207 193 209 129 345 240 300 248 72 97 84 217 98 53 154 202 186 134 134 106 104 107 117 117 116 110 105 99 80 73 57 39 359 348
95 97 111 128 129 134 147 152 87 64 67 248 156 210 235 199 218 197 183 170 220 162 106 120 209 216 238 58 127 103 221 133 79 108 189 194 172 141 136 124 118 116 116 113 112 109 113 111 91 76 53 2 350 354
107 114 118 127 136 134 147 157 149 147 218 245 190 213 216 233 257 225 162 152 184 152 80 210 221 204 310 101 70 121 126 81 96 167 184 139 114 124 105 106 112 115 118 114 123 121 116 94 67 26 0 351 23 354
316 300 223 157 157 152 165 170 173 204 239 236 221 250 220 131 287 267 165 135 357 32 71 177 251 67 325 117 103 74 121 164 162 143 114 110 107 105 112 106 110 119 119 122 117 116 124 56 12 316 323 342 43 24
262 225 186 172 169 190 203 210 198 211 240 248 241 219 201 230 235 202 143 134 108 181 213 228 183 175 137 63 62 15 104 146 129 111 110 132 124 123 116 107 109 115 114 114 104 56 357 318 307 332 319 328 27 56
237 178 186 205 203 228 217 206 252 273 254 230 256 314 84 108 155 139 168 113 171 237 235 56 81 52 51 71 42 339 58 87 70 111 124 134 119 119 120 120 119 119 116 107 106 45 32 32 45 350 274 135 84 55
221 196 202 213 219 242 245 214 201 258 271 301 316 345 131 103 18 36 310 227 188 133 69 35 54 45 61 34 35 58 52 76 114 84 83 79 101 106 109 108 101 82 55 91 93 104 91 62 45 43 45 76 95 51
257 230 219 202 201 241 252 238 236 261 344 351 330 23 34 15 47 12 16 7 41 53 54 48 50 38 22 331 1 16 33 78 104 78 47 33 41 81 81 121 112 130 108 91 78 76 52 45 34 65 83 87 94 69
333 98 151 174 196 220 275 221 201 85 326 14 322 31 70 354 20 20 62 15 48 29 65 50 50 359 336 344 358 358 39 47 74 119 152 80 6 101 86 79 98 86 93 107 99 48 63 84 106 101 91 78 78 75
244 155 111 188 265 192 241 358 98 84 84 64 357 15 14 25 6 27 353 43 58 31 36 19 337 335 1 18 332 5 353 23 52 81 82 114 103 93 90 127 106 99 88 96 103 92 72 90 110 104 101 101 83 71
326 147 183 173 204 25 302 351 346 113 68 51 49 35 22 14 353 341 70 58 70 281 231 212 252 261 271 315 330 339 5 21 58 134 120 105 93 97 97 90 116 122 108 49 98 90 75 72 81 90 85 77 77 56
338 334 333 284 170 250 161 278 305 60 52 46 42 39 33 41 10 49 54 8 332 344 12 5 28 64 47 330 7 16 349 353 87 78 110 116 104 90 111 117 104 114 130 136 104 97 92 93 93 87 85 82 65 64
40 328 54 332 314 360 25 62 63 47 34 34 86 56 2 51 60 58 39 331 354 357 2 10 40 48 91 298 297 346 9 64 100 116 182 114 116 94 68 64 64 51 41 105 100 97 97 104 105 102 92 93 94 72
44 323 49 344 339 34 352 33 27 72 105 76 68 144 52 80 72 85 225 221 291 277 277 57 52 36 32 337 240 58 276 181 94 73 10 284 139 139 134 116 81 306 153 119 119 95 55 122 143 126 127 134 120 75
31 339 322 338 253 358 39 44 64 70 48 68 155 109 105 81 103 200 195 203 211 208 155 155 134 50 358 331 334 337 4 110 96 129 134 65 59 71 126 137 132 245 193 173 163 160 180 182 176 178 181 192 227 233
309 5 2 311 3 6 68 53 46 54 117 182 90 49 82 154 182 182 197 204 161 123 136 72 326 351 14 21 1 1 27 98 118 116 69 54 42 32 24 21 24 272 208 179 186 208 171 182 176 186 152 109 71 92
353 319 27 7 352 23 43 67 162 267 187 108 119 123 149 220 148 124 149 114 89 63 31 5 11 62 56 35 34 24 38 47 95 98 91 56 360 342 347 339 348 346 15 163 227 248 227 134 150 155 143 125 135 117
318 21 59 13 16 22 320 233 272 282 60 110 110 50 38 33 37 121 95 118 150 209 201 172 149 149 135 111 85 48 17 34 69 115 127 138 244 297 315 333 347 343 1 124 100 74 76 85 77 84 83 75 67 86
154 55 80 72 52 325 326 351 22 51 59 65 56 79 105 174 334 272 201 192 192 117 103 130 132 154 144 133 120 104 62 357 65 86 98 112 155 314 328 336 337 355 69 79 83 90 95 77 82 88 88 88 76 81
158 61 74 60 34 319 11 44 44 50 31 54 24 66 44 57 32 296 282 116 118 122 180 155 152 197 204 134 131 135 126 142 140 127 111 103 71 14 5 360 11 48 70 76 79 88 96 104 104 102 95 87 85 88
43 50 64 48 26 25 347 66 48 40 31 47 332 187 175 158 199 249 331 201 160 162 172 178 175 160 165 159 164 156 147 144 154 151 132 106 87 69 48 29 42 56 68 70 70 81 88 105 114 122 121 119 114 116